Theta_e
335 338 342 343 342 343 342 343 343 344 343 343 343 343 342 341 342 342 342 343 342 342 341 340 340 339 338 335 335 336 334 334
336 340 341 339 341 340 340 340 341 341 341 340 339 339 339 339 338 340 341 341 341 342 340 339 338 336 335 334 334 334 334 333
337 338 339 338 337 340 340 340 340 339 339 338 335 335 335 336 334 338 340 339 339 338 339 337 334 334 334 333 334 333 333 333
335 336 337 338 340 337 335 339 340 339 337 335 333 330 330 332 333 336 338 338 338 337 336 334 333 332 333 334 332 332 332 332
332 334 336 336 338 338 333 335 340 339 333 332 329 328 330 329 328 330 331 335 335 335 334 331 330 331 333 332 331 331 332 332
330 334 334 335 338 337 336 337 339 338 336 330 329 326 326 326 327 326 326 328 332 333 332 331 330 329 331 331 331 330 330 332
330 333 333 334 335 336 337 337 337 337 335 330 328 326 325 325 325 326 325 327 329 330 331 328 327 328 330 330 330 329 330 331
332 332 333 334 334 335 335 336 336 336 336 332 327 326 325 326 325 326 327 328 330 330 328 326 325 327 327 330 330 330 330 329
333 333 333 333 333 334 334 335 335 334 334 334 328 326 325 326 326 326 329 330 330 328 326 323 325 328 325 329 330 330 330 330
332 335 333 333 333 333 333 334 334 334 334 334 331 328 327 326 326 327 328 328 327 326 323 321 322 326 325 327 328 330 329 329
327 334 332 333 333 332 332 333 333 333 333 334 334 331 328 327 327 326 328 326 324 324 319 320 320 321 321 324 325 327 328 328
320 334 334 334 334 333 332 332 332 334 333 333 333 333 330 328 327 326 328 326 324 322 320 319 320 321 322 319 321 324 327 326
315 331 334 335 334 332 331 330 330 332 333 333 333 333 332 329 328 326 329 328 326 323 318 317 317 322 321 318 317 320 324 325
305 327 333 335 336 335 334 333 333 333 334 333 333 334 332 331 328 327 328 327 326 322 319 316 318 322 317 316 314 316 319 322
304 309 331 335 337 336 332 335 333 332 332 332 332 333 332 332 329 328 329 328 325 324 321 320 318 322 320 318 312 311 314 318
303 306 317 333 336 335 333 331 330 332 332 333 333 334 333 332 330 328 329 329 327 325 323 322 321 319 321 321 318 314 309 309
301 303 312 325 335 335 333 331 332 332 333 333 333 333 333 332 330 330 330 329 327 325 323 322 322 322 321 320 318 315 315 311
301 302 311 324 333 335 333 332 330 329 331 331 331 331 333 332 332 331 330 329 328 326 325 324 322 322 322 322 320 317 313 311
308 305 310 324 331 334 334 332 332 330 331 331 329 330 332 332 331 330 329 329 329 327 326 324 323 322 319 321 322 321 319 316
315 319 321 325 332 334 334 333 332 331 331 332 331 331 332 333 331 330 330 330 329 327 326 326 325 323 323 321 322 322 322 319
Wind_Speed
4 6 9 13 15 15 16 16 16 15 14 12 12 12 12 10 10 9 9 9 13 14 13 13 16 16 16 12 12 12 8 5
6 6 6 6 9 12 15 16 15 14 13 13 12 12 12 10 9 9 10 8 13 15 15 14 13 13 16 13 13 11 6 5
8 11 11 7 5 9 12 15 16 14 12 13 11 5 6 8 8 11 10 9 9 11 16 15 13 13 13 13 11 4 5 3
7 10 10 10 6 6 5 8 8 8 7 8 6 6 5 6 8 10 10 9 7 10 12 14 10 5 5 10 3 5 4 4
8 8 9 10 9 6 3 3 6 6 7 7 6 5 4 4 3 3 3 6 4 7 7 4 6 4 5 4 5 5 4 4
6 5 8 10 7 8 5 6 7 6 7 8 6 5 5 5 4 4 4 3 6 6 4 4 6 5 6 6 5 3 2 3
10 10 9 9 10 8 8 7 8 7 8 7 6 6 7 5 4 5 4 4 4 5 4 3 5 5 5 6 7 6 4 2
17 15 12 12 12 13 10 9 8 9 7 7 8 6 7 6 5 5 5 4 4 5 5 4 3 4 4 5 6 6 5 4
15 19 21 16 15 12 10 9 10 9 9 10 8 7 8 8 7 6 6 5 7 4 3 3 4 4 4 4 3 6 5 6
15 14 18 20 17 12 10 11 11 9 9 8 10 9 8 8 7 7 7 8 6 6 5 4 4 6 5 5 4 5 7 6
10 15 18 20 17 12 10 12 10 8 9 9 12 10 10 8 7 6 9 7 8 6 3 4 4 3 3 4 5 5 6 5
14 13 17 19 13 11 8 8 10 8 9 10 12 11 11 9 7 9 9 7 6 5 5 3 3 6 4 3 3 3 3 5
15 14 17 13 12 13 12 13 13 11 11 15 13 12 13 11 7 9 9 9 9 8 4 5 3 5 5 3 2 2 3 3
11 15 16 16 13 14 11 12 11 9 8 11 15 14 15 12 11 10 11 8 9 9 7 4 3 7 4 3 2 1 2 3
14 15 18 18 19 11 4 8 5 7 10 10 15 17 15 14 12 10 11 9 9 11 9 10 7 5 6 5 3 4 2 2
16 15 18 19 19 16 18 16 14 11 14 13 12 16 15 14 13 11 11 9 10 10 8 8 8 8 3 3 1 5 4 2
14 12 12 14 19 20 17 17 13 10 10 14 14 14 15 14 14 14 13 10 11 13 11 10 7 8 8 5 3 1 1 3
10 11 12 13 17 20 22 21 16 11 13 12 12 11 11 14 13 12 12 11 12 11 12 13 11 9 8 8 8 7 4 3
10 15 11 12 17 19 20 19 17 18 16 13 14 12 9 13 13 12 11 12 12 11 11 11 10 10 9 8 7 9 4 5
7 6 10 12 15 17 14 13 9 10 13 13 12 11 11 13 13 12 13 13 12 12 9 9 10 9 11 9 8 8 6 6
Wind_Direction
167 184 184 180 173 165 159 156 151 151 153 149 146 142 148 154 140 133 139 154 143 136 132 129 126 127 129 126 114 115 121 121
159 178 192 198 181 166 162 155 149 153 153 147 148 145 155 161 144 137 142 147 151 140 129 129 125 130 125 129 117 115 118 122
171 190 197 191 182 173 162 155 152 150 152 148 142 146 149 153 147 148 150 150 143 139 137 138 131 124 126 122 121 121 116 127
216 198 202 186 182 174 162 157 156 152 156 153 146 143 143 144 146 153 157 150 154 133 138 134 123 129 127 131 130 125 130 135
230 237 221 191 184 180 161 146 158 160 153 151 144 137 139 136 132 128 140 137 106 122 122 118 127 133 142 150 143 137 146 140
187 229 225 217 192 186 181 166 168 173 169 151 154 147 144 152 152 146 137 136 143 148 147 138 131 132 146 133 125 116 140 149
187 185 219 214 199 193 191 193 186 179 171 165 154 159 155 148 152 147 147 142 144 148 147 152 141 141 142 147 152 149 153 180
176 182 197 208 206 193 191 188 197 189 180 180 161 166 155 154 147 151 149 148 156 170 168 163 138 134 156 149 159 157 157 137
189 187 180 190 209 204 192 194 189 196 191 179 174 160 165 154 154 158 164 159 170 148 130 127 126 143 131 134 152 163 151 161
195 191 186 188 191 196 195 198 191 193 192 188 178 171 170 157 161 167 163 169 165 172 161 136 135 173 176 171 175 171 162 162
206 190 188 191 188 181 190 192 197 187 194 195 187 181 171 171 168 162 160 171 175 164 147 137 146 154 163 149 167 170 165 146
225 201 195 191 183 172 176 183 201 188 191 196 189 188 181 172 170 163 163 171 168 153 150 134 141 140 114 103 139 133 160 169
218 196 197 180 181 181 186 195 198 196 194 197 189 186 184 179 173 166 171 180 179 168 136 144 109 135 117 116 69 133 166 180
223 210 187 188 192 188 191 190 198 197 187 190 198 189 188 180 175 178 178 173 176 172 155 137 122 166 141 127 161 177 209 184
227 210 198 191 192 182 146 161 134 168 189 190 198 195 188 181 180 178 179 178 178 181 178 166 163 185 186 143 154 205 137 165
221 216 204 194 185 181 183 183 185 195 197 194 190 188 184 181 179 177 179 181 184 182 184 183 161 176 186 238 149 140 172 167
216 212 208 192 188 189 190 189 196 186 184 185 188 186 180 182 181 185 184 184 183 182 179 189 185 180 190 172 174 187 139 140
194 195 199 187 189 193 193 197 183 174 172 179 185 187 176 183 185 186 184 184 181 181 184 188 188 187 192 199 189 186 190 178
186 188 175 178 188 193 194 195 187 184 179 176 177 179 178 187 179 185 187 182 179 180 178 186 190 193 181 202 205 211 178 184
177 142 148 173 183 190 189 185 178 184 184 175 180 184 186 177 181 185 186 179 178 182 187 190 192 201 199 202 207 208 203 198